station,date_time,longitude_east,latitude_north,depth,sw_sal,sw_sal_result_value_qualifier,sea_water_temperature,sea_water_temperature_result_value_qualifier,sea_water_pressure,sea_water_pressure_result_value_qualifier,KD_PAR,KD_PAR_result_value_qualifier
CH5-2,2017-02-06T12:00:00Z,-79.54,54.26,2,20.98,,-1.05,,, NC,, NC
CH5-2,2017-02-06T12:10:00Z,-79.54,54.26,2,20.92,,-1.05,,, NC,, NC
CH5-2,2017-02-06T12:20:00Z,-79.54,54.26,2,21.09,,-1.05,,, NC,, NC
CH5-2,2017-02-06T12:30:00Z,-79.54,54.26,2,20.60,,-1.04,,, NC,, NC
CH5-2,2017-02-06T12:40:00Z,-79.54,54.26,2,21.08,,-1.04,,, NC,, NC
CH5-2,2017-02-06T12:50:00Z,-79.54,54.26,2,20.89,,-1.04,,, NC,, NC
CH5-2,2017-02-06T13:00:00Z,-79.54,54.26,2,20.87,,-1.04,,, NC,, NC
CH5-2,2017-02-06T13:10:00Z,-79.54,54.26,2,20.80,,-1.04,,, NC,, NC
CH5-2,2017-02-06T13:20:00Z,-79.54,54.26,2,20.99,,-1.04,,, NC,, NC
CH5-2,2017-02-06T13:30:00Z,-79.54,54.26,2,20.62,,-1.04,,, NC,, NC
CH5-2,2017-02-06T13:40:00Z,-79.54,54.26,2,20.40,,-1.03,,, NC,, NC
CH5-2,2017-02-06T13:50:00Z,-79.54,54.26,2,20.48,,-1.03,,, NC,, NC
CH5-2,2017-02-06T14:00:00Z,-79.54,54.26,2,20.28,,-1.03,,, NC,, NC
CH5-2,2017-02-06T14:10:00Z,-79.54,54.26,2,20.15,,-1.03,,, NC,, NC
CH5-2,2017-02-06T14:20:00Z,-79.54,54.26,2,20.25,,-1.03,,, NC,, NC
CH5-2,2017-02-06T14:30:00Z,-79.54,54.26,2,20.03,,-1.03,,, NC,, NC
CH5-2,2017-02-06T14:40:00Z,-79.54,54.26,2,19.92,,-1.03,,, NC,, NC
CH5-2,2017-02-06T14:50:00Z,-79.54,54.26,2,19.84,,-1.03,,, NC,, NC
CH5-2,2017-02-06T15:00:00Z,-79.54,54.26,2,19.85,,-1.03,,, NC,, NC
CH5-2,2017-02-06T15:10:00Z,-79.54,54.26,2,19.83,,-1.03,,, NC,, NC
CH5-2,2017-02-06T15:20:00Z,-79.54,54.26,2,19.87,,-1.04,,, NC,, NC
CH5-2,2017-02-06T15:30:00Z,-79.54,54.26,2,19.84,,-1.04,,, NC,, NC
CH5-2,2017-02-06T15:40:00Z,-79.54,54.26,2,19.80,,-1.04,,, NC,, NC
CH5-2,2017-02-06T15:50:00Z,-79.54,54.26,2,19.55,,-1.02,,, NC,, NC
CH5-2,2017-02-06T16:00:00Z,-79.54,54.26,2,19.39,,-1.02,,, NC,, NC
CH5-2,2017-02-06T16:10:00Z,-79.54,54.26,2,19.42,,-1.02,,, NC,, NC
CH5-2,2017-02-06T16:20:00Z,-79.54,54.26,2,19.47,,-1.02,,, NC,, NC
CH5-2,2017-02-06T16:30:00Z,-79.54,54.26,2,19.54,,-1.02,,, NC,, NC
CH5-2,2017-02-06T16:40:00Z,-79.54,54.26,2,19.68,,-1.03,,, NC,, NC
CH5-2,2017-02-06T16:50:00Z,-79.54,54.26,2,19.85,,-1.03,,, NC,, NC
CH5-2,2017-02-06T17:00:00Z,-79.54,54.26,2,19.95,,-1.03,,, NC,, NC
CH5-2,2017-02-06T17:10:00Z,-79.54,54.26,2,20.07,,-1.03,,, NC,, NC
CH5-2,2017-02-06T17:20:00Z,-79.54,54.26,2,20.30,,-1.03,,, NC,, NC
CH5-2,2017-02-06T17:30:00Z,-79.54,54.26,2,20.33,,-1.03,,, NC,, NC
CH5-2,2017-02-06T17:40:00Z,-79.54,54.26,2,20.69,,-1.04,,, NC,, NC
CH5-2,2017-02-06T17:50:00Z,-79.54,54.26,2,21.05,,-1.04,,, NC,, NC
CH5-2,2017-02-06T18:00:00Z,-79.54,54.26,2,20.99,,-1.04,,, NC,, NC
CH5-2,2017-02-06T18:10:00Z,-79.54,54.26,2,21.08,,-1.05,,, NC,, NC
CH5-2,2017-02-06T18:20:00Z,-79.54,54.26,2,21.12,,-1.07,,, NC,, NC
CH5-2,2017-02-06T18:30:00Z,-79.54,54.26,2,21.00,,-1.08,,, NC,, NC
CH5-2,2017-02-06T18:40:00Z,-79.54,54.26,2,20.90,,-1.08,,, NC,, NC
CH5-2,2017-02-06T18:50:00Z,-79.54,54.26,2,21.06,,-1.09,,, NC,, NC
CH5-2,2017-02-06T19:00:00Z,-79.54,54.26,2,21.41,,-1.10,,, NC,, NC
CH5-2,2017-02-06T19:10:00Z,-79.54,54.26,2,21.48,,-1.10,,, NC,, NC
CH5-2,2017-02-06T19:20:00Z,-79.54,54.26,2,21.67,,-1.11,,, NC,, NC
CH5-2,2017-02-06T19:30:00Z,-79.54,54.26,2,21.61,,-1.11,,, NC,, NC
CH5-2,2017-02-06T19:40:00Z,-79.54,54.26,2,21.16,,-1.09,,, NC,, NC
CH5-2,2017-02-06T19:50:00Z,-79.54,54.26,2,20.56,,-1.07,,, NC,, NC
CH5-2,2017-02-06T20:00:00Z,-79.54,54.26,2,20.51,,-1.06,,, NC,, NC
CH5-2,2017-02-06T20:10:00Z,-79.54,54.26,2,20.43,,-1.06,,, NC,, NC
CH5-2,2017-02-06T20:20:00Z,-79.54,54.26,2,20.65,,-1.06,,, NC,, NC
CH5-2,2017-02-06T20:30:00Z,-79.54,54.26,2,20.90,,-1.06,,, NC,, NC
CH5-2,2017-02-06T20:40:00Z,-79.54,54.26,2,20.44,,-1.05,,, NC,, NC
CH5-2,2017-02-06T20:50:00Z,-79.54,54.26,2,20.24,,-1.05,,, NC,, NC
CH5-2,2017-02-06T21:00:00Z,-79.54,54.26,2,20.18,,-1.04,,, NC,, NC
CH5-2,2017-02-06T21:10:00Z,-79.54,54.26,2,20.30,,-1.04,,, NC,, NC
CH5-2,2017-02-06T21:20:00Z,-79.54,54.26,2,20.33,,-1.03,,, NC,, NC
CH5-2,2017-02-06T21:30:00Z,-79.54,54.26,2,20.33,,-1.03,,, NC,, NC
CH5-2,2017-02-06T21:40:00Z,-79.54,54.26,2,20.42,,-1.04,,, NC,, NC
CH5-2,2017-02-06T21:50:00Z,-79.54,54.26,2,20.17,,-1.03,,, NC,, NC
CH5-2,2017-02-06T22:00:00Z,-79.54,54.26,2,20.20,,-1.03,,, NC,, NC
CH5-2,2017-02-06T22:10:00Z,-79.54,54.26,2,20.02,,-1.03,,, NC,, NC
CH5-2,2017-02-06T22:20:00Z,-79.54,54.26,2,20.28,,-1.03,,, NC,, NC
CH5-2,2017-02-06T22:30:00Z,-79.54,54.26,2,20.55,,-1.03,,, NC,, NC
CH5-2,2017-02-06T22:40:00Z,-79.54,54.26,2,20.56,,-1.03,,, NC,, NC
CH5-2,2017-02-06T22:50:00Z,-79.54,54.26,2,20.80,,-1.04,,, NC,, NC
CH5-2,2017-02-06T23:00:00Z,-79.54,54.26,2,20.65,,-1.04,,, NC,, NC
CH5-2,2017-02-06T23:10:00Z,-79.54,54.26,2,20.67,,-1.05,,, NC,, NC
CH5-2,2017-02-06T23:20:00Z,-79.54,54.26,2,20.72,,-1.04,,, NC,, NC
CH5-2,2017-02-06T23:30:00Z,-79.54,54.26,2,20.65,,-1.04,,, NC,, NC
CH5-2,2017-02-06T23:40:00Z,-79.54,54.26,2,20.02,,-1.03,,, NC,, NC
CH5-2,2017-02-06T23:50:00Z,-79.54,54.26,2,19.93,,-1.03,,, NC,, NC
CH5-2,2017-02-07T00:00:00Z,-79.54,54.26,2,19.91,,-1.03,,, NC,, NC
CH5-2,2017-02-07T00:10:00Z,-79.54,54.26,2,19.71,,-1.03,,, NC,, NC
CH5-2,2017-02-07T00:20:00Z,-79.54,54.26,2,19.94,,-1.03,,, NC,, NC
CH5-2,2017-02-07T00:30:00Z,-79.54,54.26,2,19.59,,-1.03,,, NC,, NC
CH5-2,2017-02-07T00:40:00Z,-79.54,54.26,2,19.85,,-1.02,,, NC,, NC
CH5-2,2017-02-07T00:50:00Z,-79.54,54.26,2,19.62,,-1.02,,, NC,, NC
CH5-2,2017-02-07T01:00:00Z,-79.54,54.26,2,20.11,,-1.03,,, NC,, NC
CH5-2,2017-02-07T01:10:00Z,-79.54,54.26,2,20.42,,-1.03,,, NC,, NC
CH5-2,2017-02-07T01:20:00Z,-79.54,54.26,2,20.36,,-1.02,,, NC,, NC
CH5-2,2017-02-07T01:30:00Z,-79.54,54.26,2,20.27,,-1.02,,, NC,, NC
CH5-2,2017-02-07T01:40:00Z,-79.54,54.26,2,20.36,,-1.02,,, NC,, NC
CH5-2,2017-02-07T01:50:00Z,-79.54,54.26,2,20.45,,-1.02,,, NC,, NC
CH5-2,2017-02-07T02:00:00Z,-79.54,54.26,2,20.18,,-1.01,,, NC,, NC
CH5-2,2017-02-07T02:10:00Z,-79.54,54.26,2,20.33,,-1.01,,, NC,, NC
CH5-2,2017-02-07T02:20:00Z,-79.54,54.26,2,20.27,,-1.01,,, NC,, NC
CH5-2,2017-02-07T02:30:00Z,-79.54,54.26,2,20.24,,-1.01,,, NC,, NC
CH5-2,2017-02-07T02:40:00Z,-79.54,54.26,2,20.17,,-1.01,,, NC,, NC
CH5-2,2017-02-07T02:50:00Z,-79.54,54.26,2,20.06,,-1.01,,, NC,, NC
CH5-2,2017-02-07T03:00:00Z,-79.54,54.26,2,19.95,,-1.01,,, NC,, NC
CH5-2,2017-02-07T03:10:00Z,-79.54,54.26,2,19.64,,-1.01,,, NC,, NC
CH5-2,2017-02-07T03:20:00Z,-79.54,54.26,2,19.79,,-1.01,,, NC,, NC
CH5-2,2017-02-07T03:30:00Z,-79.54,54.26,2,19.84,,-1.02,,, NC,, NC
CH5-2,2017-02-07T03:40:00Z,-79.54,54.26,2,19.49,,-1.01,,, NC,, NC
CH5-2,2017-02-07T03:50:00Z,-79.54,54.26,2,19.38,,-1.01,,, NC,, NC
CH5-2,2017-02-07T04:00:00Z,-79.54,54.26,2,19.39,,-1.01,,, NC,, NC
CH5-2,2017-02-07T04:10:00Z,-79.54,54.26,2,19.42,,-1.01,,, NC,, NC
CH5-2,2017-02-07T04:20:00Z,-79.54,54.26,2,19.42,,-1.01,,, NC,, NC
CH5-2,2017-02-07T04:30:00Z,-79.54,54.26,2,19.50,,-1.01,,, NC,, NC
CH5-2,2017-02-07T04:40:00Z,-79.54,54.26,2,19.56,,-1.01,,, NC,, NC
CH5-2,2017-02-07T04:50:00Z,-79.54,54.26,2,19.65,,-1.01,,, NC,, NC
CH5-2,2017-02-07T05:00:00Z,-79.54,54.26,2,19.71,,-1.01,,, NC,, NC
CH5-2,2017-02-07T05:10:00Z,-79.54,54.26,2,19.75,,-1.01,,, NC,, NC
CH5-2,2017-02-07T05:20:00Z,-79.54,54.26,2,19.79,,-1.02,,, NC,, NC
CH5-2,2017-02-07T05:30:00Z,-79.54,54.26,2,19.87,,-1.02,,, NC,, NC
CH5-2,2017-02-07T05:40:00Z,-79.54,54.26,2,20.21,,-1.03,,, NC,, NC
CH5-2,2017-02-07T05:50:00Z,-79.54,54.26,2,20.31,,-1.03,,, NC,, NC
CH5-2,2017-02-07T06:00:00Z,-79.54,54.26,2,20.42,,-1.04,,, NC,, NC
CH5-2,2017-02-07T06:10:00Z,-79.54,54.26,2,20.46,,-1.04,,, NC,, NC
CH5-2,2017-02-07T06:20:00Z,-79.54,54.26,2,20.78,,-1.05,,, NC,, NC
CH5-2,2017-02-07T06:30:00Z,-79.54,54.26,2,20.60,,-1.04,,, NC,, NC
CH5-2,2017-02-07T06:40:00Z,-79.54,54.26,2,20.61,,-1.05,,, NC,, NC
CH5-2,2017-02-07T06:50:00Z,-79.54,54.26,2,20.67,,-1.07,,, NC,, NC
CH5-2,2017-02-07T07:00:00Z,-79.54,54.26,2,20.61,,-1.07,,, NC,, NC
CH5-2,2017-02-07T07:10:00Z,-79.54,54.26,2,20.60,,-1.07,,, NC,, NC
CH5-2,2017-02-07T07:20:00Z,-79.54,54.26,2,20.73,,-1.09,,, NC,, NC
CH5-2,2017-02-07T07:30:00Z,-79.54,54.26,2,20.62,,-1.08,,, NC,, NC
CH5-2,2017-02-07T07:40:00Z,-79.54,54.26,2,20.62,,-1.08,,, NC,, NC
CH5-2,2017-02-07T07:50:00Z,-79.54,54.26,2,20.49,,-1.07,,, NC,, NC
CH5-2,2017-02-07T08:00:00Z,-79.54,54.26,2,20.38,,-1.07,,, NC,, NC
CH5-2,2017-02-07T08:10:00Z,-79.54,54.26,2,20.25,,-1.06,,, NC,, NC
CH5-2,2017-02-07T08:20:00Z,-79.54,54.26,2,20.26,,-1.06,,, NC,, NC
CH5-2,2017-02-07T08:30:00Z,-79.54,54.26,2,20.24,,-1.05,,, NC,, NC
CH5-2,2017-02-07T08:40:00Z,-79.54,54.26,2,20.21,,-1.05,,, NC,, NC
CH5-2,2017-02-07T08:50:00Z,-79.54,54.26,2,20.23,,-1.05,,, NC,, NC
CH5-2,2017-02-07T09:00:00Z,-79.54,54.26,2,20.08,,-1.05,,, NC,, NC
CH5-2,2017-02-07T09:10:00Z,-79.54,54.26,2,19.98,,-1.04,,, NC,, NC
CH5-2,2017-02-07T09:20:00Z,-79.54,54.26,2,19.88,,-1.04,,, NC,, NC
CH5-2,2017-02-07T09:30:00Z,-79.54,54.26,2,19.96,,-1.04,,, NC,, NC
CH5-2,2017-02-07T09:40:00Z,-79.54,54.26,2,19.94,,-1.04,,, NC,, NC
CH5-2,2017-02-07T09:50:00Z,-79.54,54.26,2,19.95,,-1.03,,, NC,, NC
CH5-2,2017-02-07T10:00:00Z,-79.54,54.26,2,19.87,,-1.03,,, NC,, NC
CH5-2,2017-02-07T10:10:00Z,-79.54,54.26,2,19.93,,-1.03,,, NC,, NC
CH5-2,2017-02-07T10:20:00Z,-79.54,54.26,2,19.85,,-1.03,,, NC,, NC
CH5-2,2017-02-07T10:30:00Z,-79.54,54.26,2,19.84,,-1.03,,, NC,, NC
CH5-2,2017-02-07T10:40:00Z,-79.54,54.26,2,20.44,,-1.03,,, NC,, NC
CH5-2,2017-02-07T10:50:00Z,-79.54,54.26,2,20.55,,-1.04,,, NC,, NC
CH5-2,2017-02-07T11:00:00Z,-79.54,54.26,2,20.63,,-1.04,,, NC,, NC
CH5-2,2017-02-07T11:10:00Z,-79.54,54.26,2,20.79,,-1.05,,, NC,, NC
CH5-2,2017-02-07T11:20:00Z,-79.54,54.26,2,20.90,,-1.05,,, NC,, NC
CH5-2,2017-02-07T11:30:00Z,-79.54,54.26,2,19.99,,-1.03,,, NC,, NC
CH5-2,2017-02-07T11:40:00Z,-79.54,54.26,2,19.66,,-1.02,,, NC,, NC
CH5-2,2017-02-07T11:50:00Z,-79.54,54.26,2,19.53,,-1.02,,, NC,, NC
CH5-2,2017-02-07T12:00:00Z,-79.54,54.26,2,19.52,,-1.02,,, NC,, NC
CH5-2,2017-02-07T12:10:00Z,-79.54,54.26,2,19.53,,-1.02,,, NC,, NC
CH5-2,2017-02-07T12:20:00Z,-79.54,54.26,2,19.46,,-1.02,,, NC,, NC
CH5-2,2017-02-07T12:30:00Z,-79.54,54.26,2,19.47,,-1.02,,, NC,, NC
CH5-2,2017-02-07T12:40:00Z,-79.54,54.26,2,19.32,,-1.01,,, NC,, NC
CH5-2,2017-02-07T12:50:00Z,-79.54,54.26,2,19.24,,-1.01,,, NC,, NC
CH5-2,2017-02-07T13:00:00Z,-79.54,54.26,2,19.32,,-1.01,,, NC,, NC
CH5-2,2017-02-07T13:10:00Z,-79.54,54.26,2,20.06,,-1.03,,, NC,, NC
CH5-2,2017-02-07T13:20:00Z,-79.54,54.26,2,19.88,,-1.02,,, NC,, NC
CH5-2,2017-02-07T13:30:00Z,-79.54,54.26,2,19.90,,-1.02,,, NC,, NC
CH5-2,2017-02-07T13:40:00Z,-79.54,54.26,2,20.07,,-1.02,,, NC,, NC
CH5-2,2017-02-07T13:50:00Z,-79.54,54.26,2,19.68,,-1.01,,, NC,, NC
CH5-2,2017-02-07T14:00:00Z,-79.54,54.26,2,20.13,,-1.02,,, NC,, NC
CH5-2,2017-02-07T14:10:00Z,-79.54,54.26,2,20.40,,-1.02,,, NC,, NC
CH5-2,2017-02-07T14:20:00Z,-79.54,54.26,2,19.90,,-1.01,,, NC,, NC
CH5-2,2017-02-07T14:30:00Z,-79.54,54.26,2,20.25,,-1.02,,, NC,, NC
CH5-2,2017-02-07T14:40:00Z,-79.54,54.26,2,20.06,,-1.01,,, NC,, NC
CH5-2,2017-02-07T14:50:00Z,-79.54,54.26,2,20.18,,-1.01,,, NC,, NC
CH5-2,2017-02-07T15:00:00Z,-79.54,54.26,2,19.89,,-1.01,,, NC,, NC
CH5-2,2017-02-07T15:10:00Z,-79.54,54.26,2,19.86,,-1.01,,, NC,, NC
CH5-2,2017-02-07T15:20:00Z,-79.54,54.26,2,19.70,,-1.01,,, NC,, NC
CH5-2,2017-02-07T15:30:00Z,-79.54,54.26,2,19.89,,-1.01,,, NC,, NC
CH5-2,2017-02-07T15:40:00Z,-79.54,54.26,2,19.89,,-1.01,,, NC,, NC
CH5-2,2017-02-07T15:50:00Z,-79.54,54.26,2,19.88,,-1.01,,, NC,, NC
CH5-2,2017-02-07T16:00:00Z,-79.54,54.26,2,19.59,,-1.01,,, NC,, NC
CH5-2,2017-02-07T16:10:00Z,-79.54,54.26,2,19.50,,-1.01,,, NC,, NC
CH5-2,2017-02-07T16:20:00Z,-79.54,54.26,2,19.33,,-1.00,,, NC,, NC
CH5-2,2017-02-07T16:30:00Z,-79.54,54.26,2,18.92,,-0.99,,, NC,, NC
CH5-2,2017-02-07T16:40:00Z,-79.54,54.26,2,18.98,,-0.99,,, NC,, NC
CH5-2,2017-02-07T16:50:00Z,-79.54,54.26,2,18.97,,-0.99,,, NC,, NC
CH5-2,2017-02-07T17:00:00Z,-79.54,54.26,2,19.29,,-1.01,,, NC,, NC
CH5-2,2017-02-07T17:10:00Z,-79.54,54.26,2,19.02,,-1.00,,, NC,, NC
CH5-2,2017-02-07T17:20:00Z,-79.54,54.26,2,19.28,,-1.00,,, NC,, NC
CH5-2,2017-02-07T17:30:00Z,-79.54,54.26,2,19.26,,-1.00,,, NC,, NC
CH5-2,2017-02-07T17:40:00Z,-79.54,54.26,2,19.34,,-1.00,,, NC,, NC
CH5-2,2017-02-07T17:50:00Z,-79.54,54.26,2,19.44,,-1.00,,, NC,, NC
CH5-2,2017-02-07T18:00:00Z,-79.54,54.26,2,19.52,,-1.01,,, NC,, NC
CH5-2,2017-02-07T18:10:00Z,-79.54,54.26,2,19.66,,-1.01,,, NC,, NC
CH5-2,2017-02-07T18:20:00Z,-79.54,54.26,2,19.79,,-1.01,,, NC,, NC
CH5-2,2017-02-07T18:30:00Z,-79.54,54.26,2,19.67,,-1.01,,, NC,, NC
CH5-2,2017-02-07T18:40:00Z,-79.54,54.26,2,19.84,,-1.01,,, NC,, NC
CH5-2,2017-02-07T18:50:00Z,-79.54,54.26,2,20.01,,-1.02,,, NC,, NC
CH5-2,2017-02-07T19:00:00Z,-79.54,54.26,2,20.04,,-1.02,,, NC,, NC
CH5-2,2017-02-07T19:10:00Z,-79.54,54.26,2,20.31,,-1.03,,, NC,, NC
CH5-2,2017-02-07T19:20:00Z,-79.54,54.26,2,20.51,,-1.03,,, NC,, NC
CH5-2,2017-02-07T19:30:00Z,-79.54,54.26,2,20.89,,-1.05,,, NC,, NC
CH5-2,2017-02-07T19:40:00Z,-79.54,54.26,2,20.78,,-1.05,,, NC,, NC
CH5-2,2017-02-07T19:50:00Z,-79.54,54.26,2,20.73,,-1.05,,, NC,, NC
CH5-2,2017-02-07T20:00:00Z,-79.54,54.26,2,20.67,,-1.05,,, NC,, NC
CH5-2,2017-02-07T20:10:00Z,-79.54,54.26,2,20.56,,-1.05,,, NC,, NC
CH5-2,2017-02-07T20:20:00Z,-79.54,54.26,2,20.47,,-1.05,,, NC,, NC
CH5-2,2017-02-07T20:30:00Z,-79.54,54.26,2,20.73,,-1.08,,, NC,, NC
CH5-2,2017-02-07T20:40:00Z,-79.54,54.26,2,20.19,,-1.04,,, NC,, NC
CH5-2,2017-02-07T20:50:00Z,-79.54,54.26,2,20.20,,-1.04,,, NC,, NC
CH5-2,2017-02-07T21:00:00Z,-79.54,54.26,2,20.56,,-1.06,,, NC,, NC
CH5-2,2017-02-07T21:10:00Z,-79.54,54.26,2,20.65,,-1.07,,, NC,, NC
CH5-2,2017-02-07T21:20:00Z,-79.54,54.26,2,20.32,,-1.04,,, NC,, NC
CH5-2,2017-02-07T21:30:00Z,-79.54,54.26,2,20.18,,-1.05,,, NC,, NC
CH5-2,2017-02-07T21:40:00Z,-79.54,54.26,2,20.15,,-1.03,,, NC,, NC
CH5-2,2017-02-07T21:50:00Z,-79.54,54.26,2,20.06,,-1.03,,, NC,, NC
CH5-2,2017-02-07T22:00:00Z,-79.54,54.26,2,19.93,,-1.03,,, NC,, NC
CH5-2,2017-02-07T22:10:00Z,-79.54,54.26,2,19.82,,-1.03,,, NC,, NC
CH5-2,2017-02-07T22:20:00Z,-79.54,54.26,2,19.79,,-1.02,,, NC,, NC
CH5-2,2017-02-07T22:30:00Z,-79.54,54.26,2,19.73,,-1.02,,, NC,, NC
CH5-2,2017-02-07T22:40:00Z,-79.54,54.26,2,19.86,,-1.01,,, NC,, NC
CH5-2,2017-02-07T22:50:00Z,-79.54,54.26,2,19.74,,-1.01,,, NC,, NC
CH5-2,2017-02-07T23:00:00Z,-79.54,54.26,2,19.82,,-1.01,,, NC,, NC
CH5-2,2017-02-07T23:10:00Z,-79.54,54.26,2,19.56,,-1.01,,, NC,, NC
CH5-2,2017-02-07T23:20:00Z,-79.54,54.26,2,19.42,,-1.01,,, NC,, NC
CH5-2,2017-02-07T23:30:00Z,-79.54,54.26,2,19.49,,-1.01,,, NC,, NC
CH5-2,2017-02-07T23:40:00Z,-79.54,54.26,2,19.46,,-1.01,,, NC,, NC
CH5-2,2017-02-07T23:50:00Z,-79.54,54.26,2,20.04,,-1.02,,, NC,, NC
CH5-2,2017-02-08T00:00:00Z,-79.54,54.26,2,20.22,,-1.02,,, NC,, NC
CH5-2,2017-02-08T00:10:00Z,-79.54,54.26,2,20.12,,-1.02,,, NC,, NC
CH5-2,2017-02-08T00:20:00Z,-79.54,54.26,2,20.12,,-1.01,,, NC,, NC
CH5-2,2017-02-08T00:30:00Z,-79.54,54.26,2,20.24,,-1.02,,, NC,, NC
CH5-2,2017-02-08T00:40:00Z,-79.54,54.26,2,20.04,,-1.03,,, NC,, NC
CH5-2,2017-02-08T00:50:00Z,-79.54,54.26,2,20.15,,-1.03,,, NC,, NC
CH5-2,2017-02-08T01:00:00Z,-79.54,54.26,2,19.77,,-1.02,,, NC,, NC
CH5-2,2017-02-08T01:10:00Z,-79.54,54.26,2,20.12,,-1.02,,, NC,, NC
CH5-2,2017-02-08T01:20:00Z,-79.54,54.26,2,20.12,,-1.02,,, NC,, NC
CH5-2,2017-02-08T01:30:00Z,-79.54,54.26,2,19.61,,-1.01,,, NC,, NC
CH5-2,2017-02-08T01:40:00Z,-79.54,54.26,2,19.80,,-1.01,,, NC,, NC
CH5-2,2017-02-08T01:50:00Z,-79.54,54.26,2,19.76,,-1.01,,, NC,, NC
CH5-2,2017-02-08T02:00:00Z,-79.54,54.26,2,19.80,,-1.00,,, NC,, NC
CH5-2,2017-02-08T02:10:00Z,-79.54,54.26,2,19.81,,-1.00,,, NC,, NC
CH5-2,2017-02-08T02:20:00Z,-79.54,54.26,2,19.86,,-1.01,,, NC,, NC
CH5-2,2017-02-08T02:30:00Z,-79.54,54.26,2,19.90,,-1.01,,, NC,, NC
CH5-2,2017-02-08T02:40:00Z,-79.54,54.26,2,19.89,,-1.01,,, NC,, NC
CH5-2,2017-02-08T02:50:00Z,-79.54,54.26,2,19.88,,-1.01,,, NC,, NC
CH5-2,2017-02-08T03:00:00Z,-79.54,54.26,2,19.72,,-1.00,,, NC,, NC
CH5-2,2017-02-08T03:10:00Z,-79.54,54.26,2,19.40,,-1.00,,, NC,, NC
CH5-2,2017-02-08T03:20:00Z,-79.54,54.26,2,19.42,,-1.00,,, NC,, NC
CH5-2,2017-02-08T03:30:00Z,-79.54,54.26,2,19.47,,-1.00,,, NC,, NC
CH5-2,2017-02-08T03:40:00Z,-79.54,54.26,2,19.49,,-1.00,,, NC,, NC
CH5-2,2017-02-08T03:50:00Z,-79.54,54.26,2,19.50,,-1.00,,, NC,, NC
CH5-2,2017-02-08T04:00:00Z,-79.54,54.26,2,19.53,,-1.00,,, NC,, NC
CH5-2,2017-02-08T04:10:00Z,-79.54,54.26,2,19.52,,-1.00,,, NC,, NC
CH5-2,2017-02-08T04:20:00Z,-79.54,54.26,2,19.45,,-0.99,,, NC,, NC
CH5-2,2017-02-08T04:30:00Z,-79.54,54.26,2,19.09,,-0.99,,, NC,, NC
CH5-2,2017-02-08T04:40:00Z,-79.54,54.26,2,19.01,,-0.99,,, NC,, NC
CH5-2,2017-02-08T04:50:00Z,-79.54,54.26,2,19.00,,-0.99,,, NC,, NC
CH5-2,2017-02-08T05:00:00Z,-79.54,54.26,2,19.05,,-0.99,,, NC,, NC
CH5-2,2017-02-08T05:10:00Z,-79.54,54.26,2,19.03,,-0.99,,, NC,, NC
CH5-2,2017-02-08T05:20:00Z,-79.54,54.26,2,19.22,,-1.00,,, NC,, NC
CH5-2,2017-02-08T05:30:00Z,-79.54,54.26,2,19.21,,-1.00,,, NC,, NC
CH5-2,2017-02-08T05:40:00Z,-79.54,54.26,2,19.23,,-1.00,,, NC,, NC
CH5-2,2017-02-08T05:50:00Z,-79.54,54.26,2,19.17,,-1.00,,, NC,, NC
CH5-2,2017-02-08T06:00:00Z,-79.54,54.26,2,19.42,,-1.01,,, NC,, NC
CH5-2,2017-02-08T06:10:00Z,-79.54,54.26,2,19.46,,-1.01,,, NC,, NC
CH5-2,2017-02-08T06:20:00Z,-79.54,54.26,2,19.61,,-1.00,,, NC,, NC
CH5-2,2017-02-08T06:30:00Z,-79.54,54.26,2,19.57,,-1.01,,, NC,, NC
CH5-2,2017-02-08T06:40:00Z,-79.54,54.26,2,19.87,,-1.01,,, NC,, NC
CH5-2,2017-02-08T06:50:00Z,-79.54,54.26,2,19.95,,-1.02,,, NC,, NC
CH5-2,2017-02-08T07:00:00Z,-79.54,54.26,2,20.03,,-1.02,,, NC,, NC
CH5-2,2017-02-08T07:10:00Z,-79.54,54.26,2,20.10,,-1.02,,, NC,, NC
CH5-2,2017-02-08T07:20:00Z,-79.54,54.26,2,20.18,,-1.05,,, NC,, NC
CH5-2,2017-02-08T07:30:00Z,-79.54,54.26,2,20.09,,-1.05,,, NC,, NC
CH5-2,2017-02-08T07:40:00Z,-79.54,54.26,2,20.42,,-1.05,,, NC,, NC
CH5-2,2017-02-08T07:50:00Z,-79.54,54.26,2,20.45,,-1.06,,, NC,, NC
CH5-2,2017-02-08T08:00:00Z,-79.54,54.26,2,20.35,,-1.06,,, NC,, NC
CH5-2,2017-02-08T08:10:00Z,-79.54,54.26,2,20.31,,-1.06,,, NC,, NC
CH5-2,2017-02-08T08:20:00Z,-79.54,54.26,2,20.26,,-1.06,,, NC,, NC
CH5-2,2017-02-08T08:30:00Z,-79.54,54.26,2,20.28,,-1.07,,, NC,, NC
CH5-2,2017-02-08T08:40:00Z,-79.54,54.26,2,20.16,,-1.06,,, NC,, NC
CH5-2,2017-02-08T08:50:00Z,-79.54,54.26,2,20.11,,-1.05,,, NC,, NC
CH5-2,2017-02-08T09:00:00Z,-79.54,54.26,2,19.97,,-1.04,,, NC,, NC
CH5-2,2017-02-08T09:10:00Z,-79.54,54.26,2,19.81,,-1.04,,, NC,, NC
CH5-2,2017-02-08T09:20:00Z,-79.54,54.26,2,19.77,,-1.03,,, NC,, NC
CH5-2,2017-02-08T09:30:00Z,-79.54,54.26,2,19.78,,-1.03,,, NC,, NC
CH5-2,2017-02-08T09:40:00Z,-79.54,54.26,2,19.80,,-1.03,,, NC,, NC
CH5-2,2017-02-08T09:50:00Z,-79.54,54.26,2,19.72,,-1.03,,, NC,, NC
CH5-2,2017-02-08T10:00:00Z,-79.54,54.26,2,19.67,,-1.03,,, NC,, NC
CH5-2,2017-02-08T10:10:00Z,-79.54,54.26,2,19.59,,-1.03,,, NC,, NC
CH5-2,2017-02-08T10:20:00Z,-79.54,54.26,2,19.60,,-1.03,,, NC,, NC
CH5-2,2017-02-08T10:30:00Z,-79.54,54.26,2,19.48,,-1.02,,, NC,, NC
CH5-2,2017-02-08T10:40:00Z,-79.54,54.26,2,19.57,,-1.02,,, NC,, NC
CH5-2,2017-02-08T10:50:00Z,-79.54,54.26,2,19.58,,-1.02,,, NC,, NC
CH5-2,2017-02-08T11:00:00Z,-79.54,54.26,2,19.59,,-1.02,,, NC,, NC
CH5-2,2017-02-08T11:10:00Z,-79.54,54.26,2,19.50,,-1.02,,, NC,, NC
CH5-2,2017-02-08T11:20:00Z,-79.54,54.26,2,19.57,,-1.02,,, NC,, NC
CH5-2,2017-02-08T11:30:00Z,-79.54,54.26,2,19.60,,-1.01,,, NC,, NC
CH5-2,2017-02-08T11:40:00Z,-79.54,54.26,2,19.53,,-1.01,,, NC,, NC
CH5-2,2017-02-08T11:50:00Z,-79.54,54.26,2,19.90,,-1.02,,, NC,, NC
CH5-2,2017-02-08T12:00:00Z,-79.54,54.26,2,19.80,,-1.01,,, NC,, NC
CH5-2,2017-02-08T12:10:00Z,-79.54,54.26,2,19.88,,-1.02,,, NC,, NC
CH5-2,2017-02-08T12:20:00Z,-79.54,54.26,2,20.05,,-1.03,,, NC,, NC
CH5-2,2017-02-08T12:30:00Z,-79.54,54.26,2,19.83,,-1.01,,, NC,, NC
CH5-2,2017-02-08T12:40:00Z,-79.54,54.26,2,19.27,,-1.01,,, NC,, NC
CH5-2,2017-02-08T12:50:00Z,-79.54,54.26,2,19.19,,-1.00,,, NC,, NC
CH5-2,2017-02-08T13:00:00Z,-79.54,54.26,2,19.16,,-1.00,,, NC,, NC
CH5-2,2017-02-08T13:10:00Z,-79.54,54.26,2,19.06,,-1.00,,, NC,, NC
CH5-2,2017-02-08T13:20:00Z,-79.54,54.26,2,19.07,,-1.00,,, NC,, NC
CH5-2,2017-02-08T13:30:00Z,-79.54,54.26,2,19.02,,-1.00,,, NC,, NC
CH5-2,2017-02-08T13:40:00Z,-79.54,54.26,2,19.22,,-1.00,,, NC,, NC
CH5-2,2017-02-08T13:50:00Z,-79.54,54.26,2,19.20,,-1.00,,, NC,, NC
CH5-2,2017-02-08T14:00:00Z,-79.54,54.26,2,19.19,,-1.00,,, NC,, NC
CH5-2,2017-02-08T14:10:00Z,-79.54,54.26,2,19.38,,-1.00,,, NC,, NC
CH5-2,2017-02-08T14:20:00Z,-79.54,54.26,2,19.05,,-0.99,,, NC,, NC
CH5-2,2017-02-08T14:30:00Z,-79.54,54.26,2,19.57,,-1.01,,, NC,, NC
CH5-2,2017-02-08T14:40:00Z,-79.54,54.26,2,19.88,,-1.01,,, NC,, NC
CH5-2,2017-02-08T14:50:00Z,-79.54,54.26,2,19.20,,-1.00,,, NC,, NC
CH5-2,2017-02-08T15:00:00Z,-79.54,54.26,2,19.27,,-1.00,,, NC,, NC
CH5-2,2017-02-08T15:10:00Z,-79.54,54.26,2,19.45,,-1.00,,, NC,, NC
CH5-2,2017-02-08T15:20:00Z,-79.54,54.26,2,19.52,,-1.00,,, NC,, NC
CH5-2,2017-02-08T15:30:00Z,-79.54,54.26,2,19.73,,-1.00,,, NC,, NC
CH5-2,2017-02-08T15:40:00Z,-79.54,54.26,2,19.40,,-0.99,,, NC,, NC
CH5-2,2017-02-08T15:50:00Z,-79.54,54.26,2,19.81,,-1.00,,, NC,, NC
CH5-2,2017-02-08T16:00:00Z,-79.54,54.26,2,19.89,,-1.00,,, NC,, NC
CH5-2,2017-02-08T16:10:00Z,-79.54,54.26,2,19.73,,-1.00,,, NC,, NC
CH5-2,2017-02-08T16:20:00Z,-79.54,54.26,2,19.72,,-1.00,,, NC,, NC
CH5-2,2017-02-08T16:30:00Z,-79.54,54.26,2,19.71,,-1.00,,, NC,, NC
CH5-2,2017-02-08T16:40:00Z,-79.54,54.26,2,19.68,,-1.00,,, NC,, NC
CH5-2,2017-02-08T16:50:00Z,-79.54,54.26,2,19.79,,-1.00,,, NC,, NC
CH5-2,2017-02-08T17:00:00Z,-79.54,54.26,2,19.72,,-1.00,,, NC,, NC
CH5-2,2017-02-08T17:10:00Z,-79.54,54.26,2,19.64,,-1.00,,, NC,, NC
CH5-2,2017-02-08T17:20:00Z,-79.54,54.26,2,18.91,,-0.98,,, NC,, NC
CH5-2,2017-02-08T17:30:00Z,-79.54,54.26,2,19.15,,-0.99,,, NC,, NC
CH5-2,2017-02-08T17:40:00Z,-79.54,54.26,2,19.22,,-1.01,,, NC,, NC
CH5-2,2017-02-08T17:50:00Z,-79.54,54.26,2,19.22,,-1.00,,, NC,, NC
CH5-2,2017-02-08T18:00:00Z,-79.54,54.26,2,19.22,,-1.00,,, NC,, NC
CH5-2,2017-02-08T18:10:00Z,-79.54,54.26,2,19.18,,-1.01,,, NC,, NC
CH5-2,2017-02-08T18:20:00Z,-79.54,54.26,2,18.87,,-0.99,,, NC,, NC
CH5-2,2017-02-08T18:30:00Z,-79.54,54.26,2,18.59,,-0.98,,, NC,, NC
CH5-2,2017-02-08T18:40:00Z,-79.54,54.26,2,18.55,,-0.98,,, NC,, NC
CH5-2,2017-02-08T18:50:00Z,-79.54,54.26,2,18.59,,-0.98,,, NC,, NC
CH5-2,2017-02-08T19:00:00Z,-79.54,54.26,2,18.93,,-0.99,,, NC,, NC
CH5-2,2017-02-08T19:10:00Z,-79.54,54.26,2,19.07,,-0.99,,, NC,, NC
CH5-2,2017-02-08T19:20:00Z,-79.54,54.26,2,19.20,,-1.00,,, NC,, NC
CH5-2,2017-02-08T19:30:00Z,-79.54,54.26,2,19.36,,-1.01,,, NC,, NC
CH5-2,2017-02-08T19:40:00Z,-79.54,54.26,2,19.56,,-1.01,,, NC,, NC
CH5-2,2017-02-08T19:50:00Z,-79.54,54.26,2,19.83,,-1.01,,, NC,, NC
CH5-2,2017-02-08T20:00:00Z,-79.54,54.26,2,19.76,,-1.01,,, NC,, NC
CH5-2,2017-02-08T20:10:00Z,-79.54,54.26,2,19.75,,-1.01,,, NC,, NC
CH5-2,2017-02-08T20:20:00Z,-79.54,54.26,2,20.12,,-1.02,,, NC,, NC
CH5-2,2017-02-08T20:30:00Z,-79.54,54.26,2,20.06,,-1.02,,, NC,, NC
CH5-2,2017-02-08T20:40:00Z,-79.54,54.26,2,19.53,,-1.01,,, NC,, NC
CH5-2,2017-02-08T20:50:00Z,-79.54,54.26,2,19.43,,-1.00,,, NC,, NC
CH5-2,2017-02-08T21:00:00Z,-79.54,54.26,2,19.61,,-1.01,,, NC,, NC
CH5-2,2017-02-08T21:10:00Z,-79.54,54.26,2,19.74,,-1.01,,, NC,, NC
CH5-2,2017-02-08T21:20:00Z,-79.54,54.26,2,19.44,,-1.00,,, NC,, NC
CH5-2,2017-02-08T21:30:00Z,-79.54,54.26,2,19.35,,-0.99,,, NC,, NC
CH5-2,2017-02-08T21:40:00Z,-79.54,54.26,2,19.33,,-0.99,,, NC,, NC
CH5-2,2017-02-08T21:50:00Z,-79.54,54.26,2,19.34,,-0.99,,, NC,, NC
CH5-2,2017-02-08T22:00:00Z,-79.54,54.26,2,19.43,,-0.99,,, NC,, NC
CH5-2,2017-02-08T22:10:00Z,-79.54,54.26,2,19.37,,-0.99,,, NC,, NC
CH5-2,2017-02-08T22:20:00Z,-79.54,54.26,2,19.30,,-0.99,,, NC,, NC
CH5-2,2017-02-08T22:30:00Z,-79.54,54.26,2,19.28,,-0.99,,, NC,, NC
CH5-2,2017-02-08T22:40:00Z,-79.54,54.26,2,19.30,,-1.00,,, NC,, NC
CH5-2,2017-02-08T22:50:00Z,-79.54,54.26,2,19.37,,-1.00,,, NC,, NC
CH5-2,2017-02-08T23:00:00Z,-79.54,54.26,2,19.25,,-0.99,,, NC,, NC
CH5-2,2017-02-08T23:10:00Z,-79.54,54.26,2,19.24,,-0.99,,, NC,, NC
CH5-2,2017-02-08T23:20:00Z,-79.54,54.26,2,19.40,,-1.00,,, NC,, NC
CH5-2,2017-02-08T23:30:00Z,-79.54,54.26,2,19.32,,-1.00,,, NC,, NC
CH5-2,2017-02-08T23:40:00Z,-79.54,54.26,2,19.23,,-0.99,,, NC,, NC